Wind_Speed
10 9 9 9 9 9 10 11 13 14 15 15 15 15 15 14 14 14 14 14 14 14 13 12 13 14 16 17 19 20 21 21 22 22 22 23 23 24 25 27 27 26 24 22 20 19 17 15 14 12 10 8 7 7 7 8 8 5 2 3 2 1 2 2 2 2 4 5 3 3 4 3 3 5 8 10 9 9 9 9 10 10 11 12 12 14 16 16
11 11 10 9 9 9 9 10 11 12 13 14 15 15 15 14 14 14 14 13 14 14 13 13 12 13 14 15 17 19 20 21 21 21 21 21 21 22 22 25 28 28 26 24 21 20 19 16 15 13 12 10 8 8 8 8 10 7 4 4 3 1 1 1 2 2 3 4 2 4 4 5 5 5 7 9 9 9 9 9 10 11 11 12 13 15 16 16
12 12 11 11 10 9 9 9 10 11 12 13 14 14 14 14 14 14 14 14 13 13 13 12 12 13 13 14 15 17 19 20 20 21 21 20 20 20 21 23 26 28 27 25 23 21 20 18 16 15 13 11 10 10 8 9 10 9 7 5 3 1 2 2 2 3 4 3 2 3 5 6 7 7 8 8 8 8 8 8 9 11 11 13 15 16 16 16
12 12 12 12 12 11 10 10 9 10 10 11 12 14 14 14 14 14 14 14 14 13 13 12 12 12 13 13 13 15 17 16 18 21 20 20 20 19 21 21 23 27 27 27 25 23 21 20 19 17 16 12 11 11 10 10 9 9 10 7 2 2 3 2 2 4 5 3 1 2 4 7 9 9 9 8 7 7 7 6 7 10 12 13 15 16 16 15
13 13 12 13 12 12 12 11 10 9 10 10 11 13 13 14 14 14 14 14 14 14 13 13 12 11 12 12 13 14 13 10 15 21 19 20 20 20 21 21 23 25 27 28 26 25 23 22 21 19 19 14 12 13 12 11 10 10 12 10 6 5 3 2 3 5 5 4 2 2 5 6 9 10 10 11 7 6 7 6 7 10 11 12 14 15 15 14
13 13 13 13 13 13 13 12 11 10 10 10 10 11 12 13 13 14 14 13 14 14 14 13 12 11 11 12 12 13 12 8 10 16 17 19 21 21 23 23 23 25 27 28 28 27 25 24 23 21 21 16 14 15 11 11 13 11 11 11 9 7 5 3 4 5 4 2 1 3 6 6 8 10 11 12 9 8 9 8 9 12 12 12 13 14 15 15
14 14 14 13 13 13 13 13 13 12 11 11 10 11 11 11 12 13 13 13 14 14 14 13 13 12 11 11 11 13 15 12 9 14 15 18 21 22 23 24 25 25 27 28 29 29 28 26 25 23 21 17 16 16 12 12 14 13 11 11 10 10 7 6 6 3 3 3 3 4 6 6 7 8 9 12 10 8 10 10 11 13 14 14 13 14 14 15
15 15 14 14 14 14 14 14 14 13 12 12 11 11 11 11 11 12 12 13 13 13 14 14 13 13 11 12 11 14 15 12 13 18 16 17 20 21 23 24 26 26 27 28 29 29 29 28 27 24 21 18 16 15 14 13 14 15 14 11 11 12 9 9 7 2 3 7 7 5 6 8 8 7 7 11 11 9 9 10 11 13 14 14 14 14 15 16
17 16 15 15 14 14 14 14 14 14 14 13 13 12 11 11 11 11 12 12 12 12 13 13 14 14 12 12 12 13 13 13 16 20 19 18 19 20 21 24 26 27 28 28 29 30 30 30 28 24 20 18 17 16 15 14 13 14 13 12 12 12 11 10 8 6 6 9 8 7 7 9 10 7 7 10 11 11 10 9 9 11 13 14 15 16 16 17
18 17 16 16 15 15 15 15 15 15 15 15 14 13 12 12 11 11 11 11 11 11 12 13 13 14 13 12 12 12 9 12 16 19 21 21 20 20 21 22 25 27 28 29 30 31 31 30 27 25 22 18 18 17 16 15 13 12 12 13 13 11 13 11 9 9 9 11 9 9 10 10 10 8 7 9 11 12 12 11 9 10 11 14 15 16 17 17
19 19 18 17 17 16 16 16 15 15 16 16 15 14 13 13 13 12 12 11 11 10 11 11 13 14 14 13 12 11 9 12 16 17 19 21 22 22 22 22 24 26 28 29 30 31 31 30 27 26 24 21 20 19 18 17 16 16 14 12 13 13 13 10 12 12 12 13 10 11 13 12 11 9 8 10 10 12 12 12 11 10 11 13 14 15 16 16
20 20 19 18 18 18 18 17 16 16 16 16 16 15 14 14 14 13 13 12 11 10 10 11 12 13 15 14 10 9 11 15 16 16 18 21 23 23 22 22 23 25 28 29 29 30 31 31 31 28 23 20 19 17 19 20 18 18 15 11 13 14 12 11 13 12 13 13 13 14 14 14 15 12 10 11 11 12 12 13 12 12 11 11 13 14 14 15
21 21 21 20 19 19 19 19 18 17 17 17 17 16 15 14 15 15 14 13 12 11 11 11 12 13 15 14 7 9 14 15 16 17 18 21 22 22 22 22 23 25 27 29 29 30 32 33 33 28 23 20 18 18 18 19 19 17 15 12 11 10 10 14 14 14 14 14 16 14 10 11 16 16 12 12 13 13 13 14 14 14 13 12 12 12 13 14
21 21 21 21 21 21 20 20 19 19 19 18 18 17 16 15 16 16 15 14 13 12 12 13 13 13 15 11 8 11 13 13 16 18 19 19 20 21 21 21 23 24 26 29 30 32 33 33 31 29 29 23 18 21 18 15 18 16 13 14 13 10 12 16 15 15 16 17 17 14 9 7 11 17 14 13 14 13 12 14 15 15 15 14 13 13 13 13
22 21 22 22 22 22 21 21 20 20 20 19 19 18 17 17 17 16 16 16 15 14 14 14 13 15 16 11 10 14 13 13 15 17 19 19 19 20 20 20 21 23 25 28 31 33 33 32 32 29 28 27 21 21 18 14 16 15 14 16 15 13 13 16 17 16 17 19 18 16 12 6 8 14 14 13 15 14 13 13 15 17 16 16 15 14 14 14
22 22 22 22 23 23 23 22 21 21 21 21 20 19 19 18 18 17 17 17 17 16 15 15 14 15 16 12 9 11 11 14 15 16 18 18 19 19 20 20 20 22 23 26 28 31 33 31 31 26 22 25 25 21 19 18 16 17 19 16 15 16 14 15 18 18 18 20 19 19 14 7 8 12 12 14 15 15 16 15 15 16 17 17 17 16 17 16
21 21 22 23 23 24 23 23 23 22 22 22 20 20 20 19 19 18 18 18 18 18 17 16 15 15 16 13 10 10 11 13 15 17 17 17 19 19 20 19 19 20 21 24 25 28 32 31 32 30 24 23 24 22 22 22 21 19 20 17 15 18 16 15 18 20 20 21 21 21 17 9 8 12 11 14 16 15 16 17 17 17 18 18 18 18 19 18
21 20 21 22 24 24 24 23 24 23 23 23 22 20 21 20 20 20 19 19 19 19 19 18 16 13 10 8 8 10 12 13 15 16 17 17 18 19 19 18 17 19 20 21 23 26 29 29 31 30 27 26 26 27 27 25 22 20 20 18 15 16 17 15 17 20 23 23 21 21 21 15 10 13 12 12 16 17 15 16 18 19 19 19 20 20 20 20
21 20 20 21 23 24 24 24 24 24 24 24 23 21 21 21 21 22 21 21 21 20 18 18 17 11 9 9 8 11 13 13 15 16 16 17 18 19 19 19 19 18 19 19 21 26 27 26 28 29 28 30 30 31 30 24 20 19 19 18 16 16 18 16 15 18 22 23 21 21 22 20 15 16 16 12 14 17 16 16 17 20 21 21 21 22 21 21
21 21 20 20 21 23 24 24 24 25 24 23 23 22 22 22 21 22 23 21 21 20 20 21 21 17 16 16 15 15 15 15 16 18 18 18 19 19 20 21 20 18 19 19 20 25 27 25 29 32 29 30 31 30 28 23 19 19 19 19 18 18 19 18 16 18 21 20 21 21 20 19 17 17 20 17 14 16 17 16 16 18 21 23 23 24 23 22
22 21 21 20 20 22 23 23 24 25 24 23 22 22 22 22 21 23 24 22 21 22 22 22 23 21 18 16 15 17 19 19 19 20 21 20 19 19 21 23 21 20 20 19 18 21 27 28 29 31 27 25 28 29 28 25 20 19 20 20 20 19 19 18 17 19 21 19 18 19 19 20 19 17 20 23 20 18 16 15 14 14 16 20 22 24 24 22
23 22 21 20 20 22 22 22 23 24 23 23 22 21 21 21 21 23 25 24 21 21 22 21 22 21 18 16 17 19 22 23 23 23 23 23 22 20 22 24 23 21 21 20 19 20 27 30 27 27 26 24 25 28 29 27 23 21 21 20 20 20 18 17 16 17 19 19 16 17 19 20 20 19 21 24 24 21 18 17 15 14 15 17 18 20 22 23
24 23 22 20 19 21 22 22 23 23 22 22 22 21 20 21 22 22 24 25 22 20 19 20 21 20 18 19 20 20 22 24 24 25 25 25 25 22 21 25 24 21 21 24 23 22 25 28 25 24 24 24 25 27 28 27 26 24 23 22 21 20 18 18 18 17 19 20 16 15 17 18 18 20 24 27 26 24 23 21 20 18 17 15 14 16 19 22
24 23 22 21 19 20 22 22 22 21 21 21 21 21 20 20 21 21 23 24 24 21 16 17 19 19 20 22 22 20 20 22 23 25 27 26 27 25 23 24 25 23 23 24 25 25 22 20 22 24 24 25 25 25 27 27 27 27 26 25 22 20 21 21 19 16 17 18 17 15 15 19 20 21 25 27 27 26 26 25 24 22 19 16 15 16 19 21
24 24 23 22 19 19 21 21 21 21 20 20 20 19 19 20 19 20 21 20 22 21 14 14 17 18 21 20 18 17 19 21 21 24 28 27 26 27 25 23 25 25 23 23 24 26 23 18 20 24 25 27 26 26 29 28 27 27 27 27 23 20 22 22 19 17 16 17 18 17 14 16 20 22 24 23 24 26 25 26 26 23 22 19 18 18 19 21
24 24 23 23 20 19 19 21 21 20 19 18 18 18 17 18 17 17 17 14 17 20 18 16 15 16 17 15 12 12 15 19 20 24 27 27 26 25 23 23 25 25 22 22 22 24 24 20 20 23 24 27 27 27 29 29 27 26 26 27 24 20 20 22 21 20 19 18 17 18 16 15 15 19 20 21 24 25 22 23 25 24 24 23 21 19 18 20
25 25 24 23 21 20 18 19 21 20 18 17 17 16 16 15 14 13 12 9 12 17 17 15 14 15 14 13 11 8 10 14 17 23 26 26 26 25 23 23 25 23 20 21 21 23 25 21 19 23 23 26 30 28 28 30 29 26 22 24 25 22 20 21 23 23 21 18 15 18 20 18 18 17 15 17 21 22 21 22 23 24 24 25 24 22 19 19
25 26 25 23 23 21 19 19 20 19 18 17 15 15 15 14 12 9 6 5 6 8 11 13 16 15 13 12 11 11 12 10 10 17 25 26 24 25 26 24 24 23 22 24 22 20 25 26 23 25 26 26 30 29 25 28 31 25 18 20 24 22 20 21 23 23 23 19 17 19 21 18 19 18 16 17 21 22 24 23 22 22 21 22 24 24 22 20
26 27 26 24 23 22 21 20 19 19 18 16 14 14 14 13 10 6 4 5 6 6 8 12 15 14 13 12 10 12 14 12 8 12 23 28 27 26 26 23 22 22 24 27 24 16 19 26 26 26 28 27 27 26 24 27 30 23 16 17 20 20 19 21 22 22 24 22 19 21 21 16 15 18 19 18 21 24 25 23 21 20 20 20 21 23 24 23
26 28 28 26 24 23 22 21 20 19 18 16 14 14 14 12 10 8 8 7 6 8 11 12 13 13 12 11 10 12 14 15 13 13 20 29 30 29 27 23 21 21 22 25 26 19 14 19 24 26 28 27 23 23 23 26 27 21 16 17 18 17 18 19 20 22 21 18 20 23 22 17 14 17 19 20 22 22 20 20 19 18 17 18 19 20 22 25
26 28 29 27 26 25 22 21 21 19 17 16 15 14 14 13 14 11 9 10 10 11 13 13 15 13 10 9 9 10 12 15 16 15 20 27 29 29 27 24 22 22 22 23 26 24 16 15 20 24 28 27 22 22 23 24 26 21 18 20 18 15 16 16 18 19 15 13 20 25 23 20 17 19 18 17 21 19 15 17 17 16 15 14 15 17 18 23
26 28 29 28 27 26 24 23 20 18 17 17 15 16 16 14 18 18 12 9 9 10 12 13 15 14 10 11 11 10 10 13 16 18 22 26 28 30 30 26 25 25 24 24 24 25 24 21 18 19 26 30 24 23 23 24 28 26 22 24 21 15 13 13 14 14 13 15 20 22 23 22 21 24 21 16 18 18 15 16 15 16 16 13 12 13 14 18
26 28 28 29 29 27 26 25 20 18 17 17 17 18 18 16 18 22 21 14 7 6 12 14 15 15 13 13 12 10 10 12 16 18 21 25 26 29 31 28 27 26 22 22 22 23 24 24 23 20 24 32 30 27 26 26 29 30 29 28 24 15 10 10 11 10 13 18 21 18 17 19 20 22 23 22 22 20 18 18 17 17 16 13 13 12 13 15
26 28 28 29 29 27 27 26 23 20 18 19 20 20 22 22 19 18 23 23 13 6 9 12 13 15 16 15 12 10 11 11 14 18 20 24 26 26 29 29 29 26 21 20 23 24 20 20 28 28 24 28 33 31 27 24 27 33 32 30 28 23 15 11 11 11 12 16 20 19 15 16 19 18 18 21 22 20 18 18 17 16 14 12 14 15 14 14
25 28 29 29 29 28 27 27 24 21 20 21 22 24 27 27 21 17 21 24 20 12 10 11 10 12 15 16 14 12 12 10 12 18 21 24 26 26 28 29 30 29 25 21 20 23 22 19 24 30 26 24 30 32 28 22 25 31 32 31 32 31 24 17 16 19 19 16 17 19 17 18 20 18 19 21 20 19 19 19 18 15 13 13 15 17 17 16
25 26 28 29 29 28 27 28 25 23 23 22 25 30 34 30 21 17 16 19 20 17 15 15 14 15 16 17 16 15 14 11 11 17 21 23 26 26 26 27 29 31 28 23 17 18 21 18 17 26 29 25 26 30 31 27 23 25 32 36 32 29 28 24 20 20 20 15 16 18 17 19 21 21 26 27 24 22 21 21 20 16 15 16 18 18 19 20
25 25 27 28 29 28 27 27 26 25 24 25 31 35 34 30 25 19 13 14 18 17 17 19 19 19 19 18 18 18 17 14 13 16 19 22 24 25 26 25 27 31 28 23 18 16 16 16 16 23 28 28 25 26 30 32 25 22 30 35 28 23 27 28 19 14 15 12 15 21 20 19 21 21 23 26 26 26 23 21 20 20 20 20 21 22 21 22
27 25 26 27 27 27 26 26 26 26 25 28 37 39 32 28 27 24 19 16 16 16 17 20 19 18 19 19 18 17 17 17 16 17 18 19 20 22 26 25 24 28 29 24 19 15 15 16 17 23 26 26 27 25 28 33 33 27 24 26 27 23 23 25 19 13 14 11 11 21 22 20 24 22 18 18 21 23 22 19 17 19 21 20 22 24 23 23
28 25 25 25 25 24 24 25 25 25 27 32 37 37 34 31 29 28 26 21 18 17 19 20 18 17 19 20 18 16 18 18 16 17 17 17 16 17 22 25 23 25 28 27 22 16 15 16 15 20 24 24 28 31 31 32 35 33 24 22 29 30 25 27 24 18 16 11 10 17 20 19 24 25 21 17 16 16 16 16 14 14 18 20 21 23 23 24
28 25 25 25 23 23 23 23 25 26 30 36 35 31 30 29 28 30 31 28 25 22 22 21 20 19 18 18 18 16 17 18 16 16 16 15 13 12 17 23 23 23 26 27 25 19 16 18 16 15 20 24 28 34 36 33 32 33 31 26 27 27 26 27 28 29 25 16 10 12 15 18 21 23 25 24 19 18 17 17 17 16 17 19 20 21 23 24
28 25 25 25 23 22 22 23 26 28 31 35 34 30 28 25 24 26 29 32 31 27 25 23 22 22 20 19 19 17 16 17 17 16 15 15 15 11 13 21 23 23 25 27 27 24 19 19 18 15 18 24 27 29 32 34 32 31 33 34 30 26 26 22 20 27 32 26 20 14 12 19 19 17 23 28 26 24 22 20 20 20 19 20 22 23 21 20
28 25 24 25 24 22 22 24 25 26 29 32 31 27 26 27 28 27 25 28 30 29 29 28 25 23 22 21 21 19 18 18 19 19 16 15 17 12 9 16 21 22 25 27 27 25 21 18 20 19 18 21 22 22 25 30 33 31 30 34 34 30 31 27 18 23 30 29 31 26 18 21 22 15 17 21 23 25 24 22 22 21 20 23 25 23 20 18
28 26 23 24 24 22 22 24 23 23 27 31 30 27 26 30 32 30 26 25 26 27 28 30 29 27 25 23 21 20 20 19 20 20 17 14 16 16 11 11 16 19 21 23 23 24 23 18 19 22 20 18 20 20 22 24 28 33 32 32 36 35 36 34 26 26 28 27 30 26 19 21 22 18 16 15 19 24 25 24 25 24 24 26 27 24 21 19
27 26 23 22 23 22 21 20 17 18 22 24 25 26 27 29 29 26 23 23 24 24 25 27 28 28 28 25 24 23 22 21 20 20 20 18 17 20 18 13 14 16 17 18 19 23 25 22 21 20 15 15 18 18 21 24 27 32 34 33 35 36 36 36 32 31 31 31 32 25 19 23 24 23 25 20 17 21 22 21 21 22 24 26 27 25 23 21
24 23 19 17 19 20 20 18 15 15 16 16 19 21 22 25 27 27 26 24 23 22 23 24 24 25 26 25 25 25 24 23 21 18 18 20 19 20 20 18 17 15 14 16 16 19 23 24 24 22 15 12 15 17 21 26 28 29 31 32 34 36 37 36 34 33 29 28 33 31 25 27 27 26 28 24 18 18 20 20 21 22 22 23 25 25 24 22
21 21 16 13 16 18 18 18 17 17 15 14 16 16 18 20 21 24 26 27 26 23 22 21 20 22 24 25 26 26 26 26 23 19 17 17 18 19 21 23 22 18 17 20 19 16 18 21 25 28 26 21 19 19 20 22 25 28 29 31 32 33 37 37 35 35 31 26 31 35 30 28 28 26 26 26 25 24 23 23 25 26 27 26 26 28 27 27
19 19 14 11 13 14 13 13 14 16 15 15 15 13 13 14 14 16 21 25 26 25 24 22 21 21 23 24 25 25 24 24 24 23 20 16 15 16 18 24 25 21 20 22 20 16 17 20 23 28 31 30 26 21 19 20 23 26 28 30 30 28 31 37 38 38 33 26 27 32 30 30 32 30 26 25 25 26 25 25 26 26 28 27 25 26 29 31
18 17 15 15 16 14 12 12 14 17 16 15 16 16 14 14 13 13 14 18 22 23 24 24 25 25 23 22 23 23 22 23 24 25 23 20 18 16 16 19 23 22 19 17 16 16 18 20 22 26 30 32 31 28 25 23 23 25 26 28 31 31 30 33 37 38 37 33 29 27 28 32 35 36 34 30 26 24 25 27 28 28 29 31 28 24 25 29
16 17 16 18 21 20 18 18 19 21 19 16 17 18 17 17 16 13 12 14 17 20 23 24 24 26 27 25 23 22 22 22 23 24 23 22 22 21 18 17 20 22 19 16 15 16 19 21 21 24 28 30 32 32 31 29 27 27 29 29 30 33 34 34 35 36 37 39 36 31 29 32 32 34 38 38 34 31 29 28 29 30 31 33 32 27 24 26
14 15 16 19 22 22 20 20 19 19 19 18 17 16 16 16 16 16 15 14 14 15 19 22 21 21 25 28 28 25 23 22 20 19 20 21 22 23 20 18 19 21 20 18 15 15 19 20 17 20 25 27 29 30 30 31 31 30 30 31 31 32 34 36 36 36 36 38 38 36 35 36 32 30 33 37 37 36 35 34 34 35 36 35 34 31 26 25
17 18 19 22 23 21 19 18 17 16 16 16 15 14 14 13 15 18 20 20 17 14 13 17 19 17 18 23 27 25 22 21 20 18 16 18 21 22 19 17 17 18 19 19 15 13 16 16 13 15 20 22 25 28 29 29 30 30 30 30 31 31 32 34 35 36 37 36 35 36 39 38 35 32 32 34 36 37 37 38 37 38 40 40 37 34 28 25
18 18 18 20 22 22 19 17 16 16 15 13 12 14 16 17 19 21 21 19 18 16 15 16 19 20 17 17 20 22 22 25 28 26 22 21 23 24 22 21 20 17 16 17 15 12 11 11 11 13 17 20 21 23 27 27 25 26 31 31 31 33 33 32 33 35 36 37 36 36 37 35 31 31 33 33 36 39 40 41 39 37 38 41 41 36 31 27
Wind_Direction
295 295 297 303 307 307 301 294 287 282 279 278 279 282 286 293 297 300 302 304 302 298 298 290 271 259 255 252 248 245 245 246 247 245 242 239 238 238 238 238 237 238 237 234 235 238 243 250 255 261 266 271 276 268 255 238 232 237 252 262 304 34 61 70 121 95 76 133 142 51 60 86 125 145 136 139 147 147 151 154 157 162 169 174 185 195 191 180
295 294 294 296 300 306 308 304 297 289 283 280 279 280 283 288 296 300 302 305 306 304 302 299 286 266 256 254 249 245 243 244 245 246 245 242 240 236 235 235 233 234 234 233 232 235 241 246 252 256 260 266 267 261 256 245 232 224 233 262 289 357 25 38 170 148 112 144 130 62 77 111 131 145 138 142 155 154 160 171 168 169 175 179 180 189 194 186
294 294 294 294 295 298 304 307 306 299 291 285 281 280 281 284 291 297 302 304 306 306 305 304 296 278 264 255 252 247 242 242 244 245 245 243 240 234 231 231 231 231 231 231 230 232 236 240 245 248 252 256 256 257 251 245 238 224 228 252 274 264 301 312 199 182 160 149 112 89 97 125 133 132 134 142 153 156 172 183 173 174 176 179 176 180 191 187
289 291 293 293 294 294 296 301 305 305 300 292 286 283 282 283 286 291 298 302 304 306 305 305 301 290 274 260 255 250 243 243 246 244 243 242 238 230 226 225 226 228 228 228 228 229 232 235 238 241 245 244 246 253 244 240 238 225 227 235 267 281 287 288 205 195 185 173 168 131 119 138 136 126 129 134 139 147 171 182 173 174 172 174 171 171 183 184
286 287 289 290 291 292 292 294 297 301 301 297 292 287 285 285 285 287 291 298 301 303 304 303 302 296 283 268 258 252 246 246 250 244 240 240 235 228 224 221 221 223 224 225 225 227 228 232 235 237 241 239 237 246 243 236 232 226 228 233 253 267 279 275 215 213 203 189 218 164 136 150 143 132 126 123 130 153 172 176 170 171 169 170 168 165 173 177
283 284 285 287 289 290 290 290 291 293 295 297 294 291 289 287 287 287 289 292 296 300 302 302 302 297 290 276 260 253 240 223 247 245 235 235 232 228 225 220 219 219 220 221 222 224 225 228 231 234 239 239 232 239 240 233 235 235 235 237 242 249 261 264 236 239 233 207 210 157 154 161 143 138 135 130 147 168 165 169 167 165 163 167 168 163 165 169
280 280 282 284 285 288 288 288 289 289 290 291 292 293 293 292 290 290 290 290 291 295 298 300 301 297 293 283 265 256 240 216 234 242 226 226 228 227 225 221 219 218 218 218 219 221 223 225 229 233 237 236 231 236 234 230 242 240 234 237 239 243 250 254 251 257 249 206 167 172 174 167 142 144 150 145 158 160 149 159 162 162 163 166 168 162 163 165
279 279 279 280 282 284 285 287 287 286 286 286 287 290 293 295 294 294 292 291 291 292 295 296 298 296 294 288 274 260 246 224 231 236 223 219 224 225 225 222 220 219 218 217 217 219 222 224 227 229 230 230 231 234 231 232 246 243 232 235 244 246 251 256 247 218 213 196 186 197 182 167 157 159 163 155 162 157 147 156 158 162 162 163 164 162 165 165
279 279 278 278 279 280 282 283 284 285 285 284 284 285 289 293 295 298 295 294 294 291 292 292 294 294 291 288 282 269 251 236 234 233 227 222 221 223 224 224 221 219 218 216 215 215 218 222 224 225 224 228 231 229 230 234 245 245 233 232 244 251 260 261 230 198 202 197 199 212 192 181 180 172 170 170 170 163 155 156 155 159 159 161 165 166 168 168
278 279 278 278 278 278 279 280 281 282 282 283 282 283 285 288 292 294 295 297 298 295 292 290 291 290 289 286 280 274 251 237 236 229 227 226 224 224 223 225 223 220 218 216 214 213 215 219 220 222 221 223 228 226 227 230 235 237 231 235 241 251 267 257 207 196 206 209 212 211 202 199 198 182 182 194 185 172 162 160 159 158 162 163 166 169 171 173
276 277 277 277 277 277 277 277 278 279 280 281 281 282 282 284 288 289 292 295 297 298 294 291 288 286 287 281 275 276 255 235 233 226 223 225 226 225 222 225 226 221 218 216 214 213 213 215 214 216 220 221 226 228 228 228 231 232 232 244 246 254 268 238 193 194 208 219 209 199 209 214 210 194 198 215 199 183 171 165 168 165 169 172 170 173 174 175
274 274 275 275 276 276 276 275 276 277 278 280 280 281 280 281 284 285 288 291 294 296 295 294 288 285 283 278 277 279 258 238 234 229 223 223 224 225 224 226 227 223 219 216 213 212 210 211 212 211 216 221 222 224 230 233 233 236 235 243 253 260 256 209 189 198 206 217 205 196 211 221 223 209 202 216 201 191 183 172 178 177 179 181 178 179 177 178
273 272 272 272 273 273 274 274 275 275 276 277 280 280 280 281 280 281 284 286 289 291 292 293 290 288 283 281 280 263 252 239 233 232 227 224 223 225 226 225 226 223 218 214 211 211 210 210 210 208 211 216 217 216 225 234 232 235 234 229 242 248 222 194 192 201 200 213 216 205 208 218 225 220 215 216 200 194 193 183 185 187 191 192 189 188 183 184
274 272 271 271 271 270 271 271 272 274 274 275 277 279 280 280 279 279 281 282 285 286 287 288 290 290 283 285 278 254 247 238 233 232 230 227 225 225 225 223 224 222 218 214 210 209 209 208 206 205 209 208 213 220 220 231 231 227 226 224 225 221 207 199 201 204 199 213 220 209 211 214 211 217 222 219 205 198 199 196 193 193 199 200 201 200 195 194
277 275 273 271 269 269 268 269 269 270 272 272 273 276 278 278 278 278 279 280 281 281 283 284 288 290 287 287 270 254 244 235 233 233 232 229 227 227 224 221 222 222 217 214 211 209 206 206 205 205 209 208 209 216 213 222 226 215 217 220 217 214 204 203 208 206 205 216 215 203 214 214 194 212 219 219 213 200 197 205 203 201 204 206 209 209 208 206
281 278 275 273 271 269 268 267 267 267 269 270 270 273 274 275 276 276 277 277 278 279 280 282 284 287 290 290 270 257 242 229 231 233 231 229 227 226 224 219 219 220 216 212 211 210 207 204 204 201 205 210 208 208 209 216 215 209 220 222 211 208 197 200 211 207 209 222 215 204 212 206 199 218 217 218 221 206 200 206 207 209 209 211 214 215 217 216
285 282 278 276 274 272 270 268 267 266 267 267 268 270 272 273 274 275 275 274 276 276 277 279 280 283 286 282 264 252 237 222 223 229 228 226 225 225 223 219 218 217 213 209 207 208 207 203 202 200 199 205 204 205 209 213 210 206 218 224 214 209 199 198 210 206 210 223 218 210 214 206 203 225 226 223 224 216 210 208 208 212 213 216 219 220 222 223
285 284 281 278 276 274 272 271 269 267 267 267 267 267 269 271 272 273 273 273 274 274 277 276 273 281 285 269 253 246 238 223 219 223 224 222 221 222 221 217 216 215 209 205 203 203 202 202 204 203 201 203 202 205 209 211 210 206 210 217 215 212 206 201 206 209 214 223 218 210 215 216 214 234 239 226 225 223 219 217 215 215 217 219 223 226 227 226
283 283 282 280 278 275 274 272 272 270 268 269 268 267 268 269 270 271 269 270 271 271 275 273 265 262 250 247 264 262 245 229 221 222 222 218 216 217 218 215 212 211 206 200 202 200 196 198 203 203 203 204 203 206 210 212 214 212 211 214 214 210 210 208 208 218 224 223 217 213 217 219 219 237 243 228 223 226 224 223 222 221 221 221 224 227 229 229
282 281 281 280 279 278 276 273 272 272 270 270 270 270 270 270 272 273 268 265 267 266 265 268 267 259 248 251 264 261 247 232 223 222 222 217 212 212 215 215 211 207 201 197 203 202 196 199 205 205 204 204 204 207 211 215 218 218 216 219 219 212 210 210 208 221 228 221 216 218 221 223 222 235 247 241 229 227 226 226 226 226 226 225 225 227 228 229
282 281 280 279 280 279 277 275 273 272 272 271 270 271 270 271 273 274 271 266 264 265 264 264 266 261 253 252 254 250 242 232 221 219 221 217 211 209 212 212 207 205 202 197 202 201 201 208 211 208 206 206 207 207 210 215 218 219 219 222 223 218 212 208 207 218 224 220 219 222 225 230 228 229 243 245 237 232 232 234 240 239 235 233 230 229 229 228
282 281 279 278 279 279 279 277 274 272 273 273 272 271 271 271 272 273 275 272 263 261 263 263 264 261 255 250 246 242 238 232 221 216 218 217 210 206 211 210 203 205 204 196 197 199 206 213 213 210 209 209 208 207 209 214 217 219 221 225 226 221 211 202 208 215 217 220 221 223 229 233 232 230 240 248 244 240 241 243 250 250 244 240 234 231 230 228
282 280 278 277 276 277 278 277 275 273 272 273 273 273 273 273 273 274 278 279 270 258 257 260 262 259 256 252 247 242 239 236 226 219 219 219 209 201 208 210 202 202 204 199 200 202 210 217 214 210 209 208 207 205 207 213 218 222 223 225 226 220 206 201 211 215 215 221 224 226 234 238 238 235 241 250 251 247 246 246 246 246 243 239 235 233 231 229
282 279 277 275 274 275 276 276 276 274 272 272 272 274 274 274 276 278 280 282 277 267 254 250 252 251 252 253 251 247 242 239 229 221 222 220 210 202 205 208 202 203 207 206 208 210 215 219 213 209 207 204 204 205 206 211 217 222 223 225 226 218 209 209 213 213 215 223 224 224 236 244 242 236 238 250 257 251 247 247 244 241 239 232 225 224 224 226
280 278 277 274 272 272 274 274 274 273 272 270 271 272 274 276 279 281 286 290 284 275 259 245 244 244 245 247 250 244 236 234 225 218 223 220 213 208 206 206 204 206 210 208 210 215 219 222 209 203 207 206 207 209 208 209 215 220 222 223 225 220 214 214 211 206 213 223 223 219 235 250 242 236 237 242 252 254 248 246 245 241 238 231 220 218 218 220
278 276 275 273 270 267 270 272 272 272 271 269 269 269 271 275 278 283 293 295 284 275 265 250 238 234 233 229 232 230 228 231 218 215 223 219 213 211 205 206 207 208 211 208 210 215 216 222 215 205 210 211 210 214 211 208 215 220 221 220 222 223 220 216 207 204 215 227 225 218 230 251 245 237 236 231 243 257 254 247 247 243 240 235 227 225 224 222
277 274 272 271 269 264 263 267 269 269 270 268 266 265 266 270 274 286 297 287 270 266 259 242 220 214 212 209 207 198 210 224 216 213 219 216 210 207 203 205 208 208 204 200 209 216 211 214 214 207 211 212 211 215 211 208 215 222 222 217 216 220 221 215 207 211 223 228 225 219 227 246 249 241 238 229 233 253 260 252 250 248 243 240 237 233 231 228
276 274 270 268 267 264 259 260 264 265 264 263 261 260 260 262 267 279 293 277 253 249 241 216 204 203 202 207 200 187 195 201 208 215 216 213 206 205 209 209 210 208 202 200 206 216 215 214 214 209 210 213 214 214 209 207 214 222 222 212 211 215 220 217 212 217 226 226 224 223 225 242 251 243 242 238 229 242 261 261 258 258 255 249 244 241 238 233
276 274 270 266 265 264 259 258 259 259 259 258 255 252 250 252 255 248 240 255 245 240 229 199 198 205 205 208 202 202 202 186 188 209 207 208 203 204 211 211 210 210 210 213 214 217 223 220 217 214 212 215 217 214 212 210 211 218 219 206 207 213 217 219 217 222 227 226 228 225 219 230 251 243 233 234 233 242 260 268 268 268 267 263 254 248 243 237
275 273 271 266 263 261 258 258 259 256 254 253 246 240 239 234 226 217 217 229 230 233 228 203 198 206 204 208 213 218 212 196 202 208 200 204 205 207 209 206 208 211 212 219 220 220 229 224 217 214 212 215 217 215 215 212 209 215 214 202 204 211 215 220 222 228 231 227 230 231 221 221 248 247 227 226 240 248 254 261 272 276 270 268 264 255 248 242
273 272 270 266 262 260 256 255 257 256 252 247 239 231 228 219 214 217 218 222 225 230 229 214 205 202 194 198 205 213 211 205 210 206 196 198 202 207 208 203 204 208 210 215 218 218 222 221 215 212 213 213 214 215 215 211 208 213 212 204 203 201 205 216 218 226 235 227 230 235 226 219 238 248 233 227 241 249 244 245 262 278 275 267 263 260 254 248
270 269 269 267 262 259 257 252 250 252 249 242 234 222 214 213 218 218 215 220 228 224 215 206 202 204 205 200 195 196 205 210 210 204 198 196 197 202 204 201 198 201 207 208 210 214 217 218 213 210 214 211 207 211 213 210 209 214 213 206 203 195 195 211 212 215 227 229 232 235 226 220 233 244 242 235 235 236 241 246 253 265 271 264 255 258 257 253
268 266 266 266 262 257 257 254 245 244 244 236 229 216 208 220 226 216 210 209 207 206 204 202 205 209 208 202 198 198 205 214 210 203 200 198 199 203 205 205 201 201 207 205 203 208 213 217 215 210 213 212 207 206 207 205 206 209 209 205 206 204 200 210 211 214 223 226 230 228 223 224 234 245 247 243 240 240 249 261 264 262 264 257 244 248 252 248
267 265 263 263 262 257 254 254 247 239 237 231 223 211 210 227 233 217 213 213 213 212 198 195 201 207 208 207 207 203 202 213 208 200 200 199 201 205 206 208 207 206 210 207 204 205 206 213 213 207 207 210 208 207 207 205 205 209 209 210 213 214 215 215 212 217 221 224 224 213 211 228 233 241 248 244 244 249 252 262 273 273 264 249 237 239 244 241
267 265 264 262 260 257 252 252 249 239 234 228 218 210 215 225 228 223 219 216 218 220 206 200 200 207 217 219 218 209 197 203 206 202 203 203 204 207 206 206 206 205 210 212 208 209 213 220 214 207 206 206 207 207 207 207 209 210 210 215 219 217 220 228 229 229 227 228 225 209 209 232 235 239 246 246 250 255 255 258 270 277 260 240 234 232 233 234
270 266 266 264 260 258 252 249 247 239 234 226 216 217 221 222 222 224 225 220 221 219 218 225 224 222 227 224 223 221 209 204 205 205 209 210 211 211 207 206 204 202 208 212 207 207 215 223 211 203 205 204 203 204 204 208 210 207 209 216 221 220 222 229 233 231 228 233 230 216 218 231 236 243 247 250 255 256 256 258 264 276 265 241 235 232 228 229
272 265 264 265 262 259 253 249 245 239 233 225 221 224 227 226 225 226 224 219 218 216 219 229 228 225 229 227 224 223 219 217 212 211 213 212 215 214 209 208 206 204 206 208 211 211 216 222 204 195 201 201 201 204 206 212 212 205 209 214 215 220 226 229 228 218 218 234 235 227 226 224 229 242 246 246 249 247 249 253 256 270 271 248 234 233 229 227
274 267 262 262 261 259 255 250 245 239 234 227 227 230 231 230 229 226 224 222 221 219 223 228 226 221 224 228 225 215 212 215 210 211 214 210 214 214 208 209 209 207 206 208 217 218 215 225 210 195 202 203 200 204 208 212 214 214 216 213 210 214 218 219 223 221 220 230 238 235 233 226 227 234 233 231 234 236 240 244 244 258 265 252 237 236 233 229
276 271 265 260 259 257 251 248 245 238 232 229 230 233 234 234 231 228 227 231 231 227 227 228 227 225 224 226 227 212 206 212 207 207 213 208 208 210 206 208 207 204 205 207 217 218 210 226 219 197 203 204 198 204 209 209 210 215 222 220 216 219 218 215 220 228 230 231 236 238 234 227 227 228 225 221 220 221 229 237 239 249 260 255 241 236 235 233
279 276 269 260 257 255 249 243 240 234 232 232 233 234 237 238 237 234 233 234 233 230 231 234 231 229 226 222 224 214 206 212 207 205 212 205 203 211 208 207 205 204 204 205 215 219 210 220 224 195 193 201 200 204 209 208 204 207 214 217 213 214 220 224 225 227 232 237 235 236 239 232 227 226 225 224 225 230 237 244 248 252 259 259 251 244 243 242
281 279 273 263 258 255 251 244 238 234 235 238 237 237 239 240 238 237 238 238 237 233 231 234 231 229 228 222 221 217 211 215 213 212 217 210 207 216 209 205 205 205 205 207 213 216 208 212 218 198 188 202 209 208 211 213 209 206 210 214 214 211 214 222 227 224 227 233 234 236 246 239 230 224 225 228 233 238 241 245 251 255 255 257 259 256 250 247
282 279 275 270 263 256 251 247 243 239 238 239 237 236 238 238 238 238 238 239 239 235 230 231 231 228 228 225 222 221 220 222 221 219 221 217 210 209 200 200 205 207 208 210 212 212 209 212 217 215 209 211 216 214 214 215 216 216 216 216 218 218 217 219 222 221 224 232 236 239 244 241 236 228 221 225 232 234 237 244 252 255 252 254 259 256 244 239
281 277 276 275 271 263 255 252 248 244 244 243 241 239 237 239 241 243 241 237 236 235 232 232 232 230 229 228 226 226 227 229 230 225 222 223 215 210 210 202 198 201 207 210 210 207 209 212 216 223 227 224 221 218 216 216 217 221 222 218 218 219 221 224 226 226 227 229 232 236 241 238 232 227 226 233 238 238 240 246 251 250 246 252 258 251 237 236
280 278 277 274 271 266 257 252 251 249 249 250 249 246 243 241 241 240 235 232 231 231 231 231 232 231 229 228 229 229 229 232 237 234 229 234 230 219 219 213 195 193 201 207 204 202 206 209 212 219 225 223 220 213 208 210 214 219 221 219 220 221 223 227 229 229 233 232 230 232 238 234 230 233 242 245 238 233 233 237 247 252 251 256 259 250 239 240
280 279 277 271 266 261 249 242 247 251 249 251 252 248 246 244 241 237 232 229 228 228 231 231 230 230 228 228 229 229 229 230 235 239 235 236 237 227 220 215 204 200 204 201 195 199 207 209 208 214 217 212 212 208 205 206 209 216 221 220 220 221 222 225 228 229 232 233 232 233 237 236 233 234 237 231 219 223 229 235 247 257 257 255 254 251 246 247
279 277 276 271 261 256 249 242 245 250 249 258 264 254 248 249 247 243 238 232 228 226 229 231 229 227 226 224 226 228 228 229 231 234 233 229 228 226 223 218 210 206 206 199 191 196 214 217 212 216 222 223 221 218 214 212 211 215 219 220 221 223 224 225 228 230 231 232 233 235 239 239 233 227 225 224 225 233 238 243 250 254 252 248 248 254 255 254
275 272 272 269 254 244 249 252 249 249 248 258 267 257 248 251 249 244 240 235 232 228 228 230 225 221 220 218 221 224 225 225 226 226 226 222 215 217 224 220 211 204 201 198 197 202 218 224 218 219 227 230 231 230 225 220 219 219 219 220 221 222 223 225 228 230 232 233 235 235 235 236 233 228 224 225 230 236 239 244 249 250 251 250 251 256 256 255
269 266 258 256 249 231 229 234 230 234 240 251 260 254 248 251 248 245 243 236 232 228 227 229 225 221 220 216 218 221 219 220 222 222 223 223 219 220 226 222 213 208 202 202 211 216 221 227 223 222 228 231 232 235 233 227 226 225 223 222 222 222 222 225 229 231 232 235 239 237 233 233 233 231 231 233 234 237 243 247 249 250 254 257 259 263 262 258
263 263 256 255 255 245 237 234 231 237 243 249 258 255 249 248 246 247 245 234 230 226 224 226 227 226 224 221 221 223 220 219 221 222 222 222 222 223 226 223 215 211 210 214 220 220 223 229 228 226 229 231 231 234 235 233 231 230 230 229 228 226 225 226 230 232 233 236 240 241 238 236 232 230 235 239 240 244 250 250 246 246 250 254 257 260 266 262
256 259 256 256 259 257 253 251 250 254 254 248 253 257 252 249 250 248 239 229 227 222 219 225 230 231 228 224 223 226 224 223 225 225 222 220 221 223 225 222 213 209 212 218 220 222 226 227 227 229 233 233 230 231 232 233 233 233 233 233 232 231 230 229 229 230 232 236 238 239 240 239 234 233 238 241 241 245 249 248 247 247 247 250 253 256 263 265
260 259 259 261 264 262 259 258 258 262 261 253 252 254 248 241 243 242 234 223 217 212 218 228 228 225 222 217 220 227 228 227 227 222 212 209 214 220 223 220 212 210 213 213 211 217 224 224 223 228 234 232 227 227 228 230 232 235 234 232 232 233 233 232 230 229 230 234 235 236 238 239 238 238 240 240 240 243 246 245 248 251 249 247 251 253 257 261
269 266 263 264 265 262 258 259 257 257 260 257 248 241 236 232 236 242 238 226 217 221 232 229 217 212 211 209 214 219 220 222 224 219 210 205 207 211 212 210 208 211 214 207 201 199 203 211 215 221 232 233 226 224 226 226 228 231 230 231 231 232 233 234 234 232 231 232 234 235 238 241 240 236 237 240 241 242 243 243 243 248 250 247 248 249 249 254
Height
3171 3170 3169 3169 3168 3168 3167 3167 3166 3166 3165 3165 3164 3164 3164 3163 3163 3162 3162 3161 3160 3160 3160 3159 3159 3159 3159 3159 3160 3161 3162 3163 3164 3165 3166 3167 3167 3168 3170 3171 3173 3175 3177 3179 3180 3181 3182 3183 3184 3185 3186 3186 3187 3187 3187 3188 3188 3189 3190 3191 3190 3190 3191 3191 3192 3191 3192 3192 3191 3191 3191 3191 3191 3191 3190 3190 3191 3191 3192 3193 3194 3194 3195 3196 3196 3197 3198 3198
3170 3169 3168 3168 3167 3166 3166 3165 3164 3164 3163 3163 3163 3162 3162 3162 3161 3160 3160 3159 3159 3158 3158 3158 3158 3157 3157 3158 3158 3159 3160 3161 3162 3163 3164 3165 3165 3167 3168 3169 3171 3173 3175 3178 3179 3181 3182 3183 3183 3184 3185 3186 3187 3187 3187 3187 3188 3189 3191 3191 3190 3191 3191 3191 3192 3192 3192 3193 3192 3191 3191 3191 3191 3191 3191 3191 3192 3192 3192 3193 3194 3194 3195 3195 3196 3197 3198 3199
3169 3168 3167 3166 3166 3165 3164 3164 3163 3162 3162 3161 3161 3160 3160 3160 3159 3159 3158 3158 3157 3157 3156 3156 3156 3156 3156 3156 3156 3157 3158 3159 3160 3161 3162 3163 3164 3165 3166 3167 3169 3171 3174 3176 3178 3179 3180 3181 3182 3183 3184 3185 3186 3187 3187 3187 3187 3189 3191 3191 3191 3191 3191 3191 3192 3192 3193 3192 3192 3192 3191 3191 3192 3191 3192 3192 3193 3193 3193 3194 3194 3194 3195 3196 3196 3197 3198 3199
3167 3166 3166 3165 3164 3164 3163 3162 3162 3161 3160 3160 3159 3159 3158 3158 3158 3157 3157 3156 3156 3155 3155 3155 3155 3154 3154 3155 3155 3155 3156 3158 3158 3158 3160 3161 3162 3163 3164 3166 3167 3169 3172 3174 3176 3178 3179 3180 3181 3182 3183 3185 3186 3186 3187 3187 3187 3189 3190 3191 3191 3191 3191 3191 3191 3192 3192 3192 3192 3192 3191 3192 3192 3192 3192 3193 3194 3194 3194 3194 3194 3195 3195 3196 3196 3197 3198 3200
3165 3165 3164 3164 3163 3162 3162 3161 3160 3160 3159 3158 3158 3157 3157 3156 3156 3156 3155 3155 3154 3154 3153 3153 3153 3153 3153 3153 3154 3154 3155 3157 3156 3156 3158 3159 3160 3161 3162 3163 3165 3167 3169 3171 3174 3176 3177 3179 3180 3181 3182 3184 3185 3185 3186 3187 3187 3188 3189 3190 3190 3191 3191 3191 3191 3191 3191 3191 3192 3192 3192 3192 3192 3192 3192 3193 3195 3196 3195 3195 3195 3195 3196 3197 3197 3197 3199 3200
3163 3163 3162 3162 3161 3161 3160 3159 3159 3158 3157 3157 3156 3155 3155 3155 3154 3154 3153 3153 3152 3152 3152 3151 3151 3151 3151 3152 3152 3153 3154 3155 3154 3154 3156 3157 3158 3159 3160 3161 3163 3165 3167 3169 3172 3173 3175 3177 3178 3180 3181 3183 3185 3185 3186 3187 3186 3187 3189 3189 3190 3190 3190 3190 3190 3190 3190 3191 3191 3192 3192 3192 3192 3192 3193 3193 3195 3196 3195 3195 3195 3196 3196 3197 3198 3198 3199 3201
3161 3161 3160 3160 3160 3159 3159 3158 3157 3157 3156 3155 3154 3154 3153 3153 3152 3152 3152 3151 3151 3150 3150 3150 3150 3149 3150 3150 3151 3151 3151 3153 3153 3152 3153 3154 3155 3157 3158 3159 3160 3162 3164 3167 3169 3171 3174 3175 3177 3179 3180 3182 3184 3185 3186 3186 3185 3186 3188 3188 3189 3189 3190 3190 3189 3189 3190 3191 3192 3192 3192 3192 3193 3193 3193 3194 3195 3195 3195 3195 3195 3196 3196 3197 3198 3199 3200 3201
3159 3159 3158 3158 3157 3157 3157 3156 3156 3155 3154 3153 3153 3152 3152 3152 3151 3150 3150 3150 3149 3149 3148 3148 3148 3148 3148 3148 3149 3149 3149 3151 3151 3149 3151 3153 3153 3155 3156 3157 3159 3160 3162 3165 3167 3170 3172 3174 3176 3178 3180 3182 3183 3184 3185 3185 3184 3184 3186 3188 3188 3187 3188 3189 3189 3189 3190 3191 3191 3191 3192 3192 3193 3194 3193 3194 3194 3194 3195 3195 3196 3196 3197 3198 3199 3200 3201 3201
3157 3157 3156 3156 3155 3155 3155 3154 3154 3153 3153 3152 3151 3151 3150 3150 3150 3149 3148 3148 3148 3147 3147 3146 3146 3146 3146 3146 3146 3147 3147 3148 3148 3148 3150 3151 3152 3153 3155 3156 3157 3158 3160 3163 3165 3167 3169 3171 3174 3177 3179 3181 3183 3183 3184 3184 3184 3183 3185 3187 3186 3186 3187 3187 3188 3188 3189 3190 3191 3191 3192 3193 3193 3193 3194 3194 3194 3194 3195 3195 3196 3197 3197 3198 3199 3200 3201 3201
3155 3154 3154 3154 3153 3153 3152 3152 3152 3151 3151 3150 3149 3149 3149 3148 3148 3148 3147 3146 3146 3145 3145 3145 3144 3144 3144 3144 3145 3144 3145 3146 3146 3147 3148 3149 3150 3151 3153 3154 3155 3157 3158 3160 3163 3165 3167 3170 3174 3176 3178 3180 3181 3182 3182 3183 3183 3182 3184 3185 3185 3185 3185 3186 3187 3188 3189 3190 3190 3191 3192 3192 3192 3193 3194 3194 3193 3194 3194 3195 3196 3197 3198 3198 3199 3200 3201 3201
3153 3152 3152 3152 3151 3151 3150 3150 3149 3149 3148 3148 3148 3147 3147 3147 3146 3146 3146 3145 3144 3144 3143 3143 3143 3142 3142 3142 3142 3143 3143 3143 3143 3144 3146 3147 3148 3149 3150 3152 3153 3155 3156 3158 3161 3163 3167 3170 3172 3174 3176 3177 3179 3180 3181 3181 3181 3181 3182 3183 3183 3184 3184 3185 3186 3187 3188 3189 3190 3191 3191 3192 3191 3193 3194 3193 3193 3194 3194 3195 3196 3197 3198 3199 3199 3200 3201 3202
3150 3150 3149 3149 3149 3148 3148 3147 3147 3147 3146 3146 3145 3146 3145 3145 3145 3144 3144 3143 3143 3142 3142 3141 3141 3140 3140 3140 3140 3141 3140 3141 3142 3143 3143 3144 3145 3146 3148 3150 3151 3153 3154 3156 3159 3162 3165 3167 3168 3172 3174 3175 3178 3179 3179 3179 3180 3181 3182 3183 3183 3183 3183 3183 3185 3186 3187 3188 3189 3191 3191 3191 3191 3192 3193 3192 3193 3193 3194 3195 3195 3196 3197 3198 3199 3200 3200 3201
3148 3147 3147 3147 3146 3146 3146 3145 3145 3144 3144 3144 3143 3143 3143 3143 3143 3142 3142 3142 3142 3141 3140 3140 3139 3138 3138 3137 3139 3138 3137 3139 3140 3141 3141 3142 3143 3144 3146 3148 3149 3151 3152 3154 3157 3159 3161 3163 3166 3170 3172 3174 3177 3177 3176 3177 3179 3180 3181 3183 3183 3182 3182 3182 3184 3185 3186 3187 3188 3189 3191 3190 3190 3191 3191 3191 3192 3193 3193 3194 3195 3196 3197 3198 3199 3199 3200 3201
3145 3145 3145 3144 3144 3144 3143 3143 3143 3142 3142 3141 3141 3141 3141 3141 3141 3140 3140 3140 3140 3139 3139 3138 3137 3137 3135 3136 3136 3136 3135 3136 3138 3139 3139 3140 3141 3143 3144 3146 3147 3149 3150 3152 3153 3155 3158 3161 3164 3167 3169 3172 3175 3174 3176 3177 3178 3179 3181 3181 3182 3181 3181 3181 3182 3184 3185 3186 3186 3189 3190 3189 3189 3190 3189 3190 3191 3192 3192 3193 3194 3195 3196 3197 3198 3199 3200 3200
3142 3142 3142 3141 3141 3141 3140 3140 3140 3140 3139 3139 3139 3139 3139 3139 3138 3138 3138 3138 3138 3137 3137 3136 3136 3135 3133 3134 3134 3133 3134 3134 3135 3136 3138 3139 3140 3141 3142 3144 3145 3147 3148 3150 3152 3154 3157 3159 3162 3165 3167 3169 3171 3173 3176 3177 3177 3179 3179 3178 3179 3180 3179 3180 3181 3182 3184 3184 3185 3188 3189 3188 3189 3188 3188 3189 3190 3190 3192 3192 3193 3194 3195 3196 3197 3198 3199 3199
3140 3140 3139 3138 3138 3138 3138 3138 3138 3138 3137 3137 3137 3136 3136 3136 3136 3136 3136 3136 3135 3135 3135 3135 3134 3133 3132 3131 3131 3131 3132 3132 3133 3134 3135 3137 3139 3139 3140 3142 3144 3145 3147 3148 3151 3153 3155 3158 3161 3164 3167 3167 3169 3173 3175 3175 3175 3176 3176 3175 3176 3177 3178 3179 3179 3181 3182 3183 3184 3187 3187 3188 3188 3187 3187 3188 3189 3189 3190 3191 3192 3193 3194 3195 3196 3197 3198 3198
3137 3137 3136 3136 3135 3134 3134 3135 3135 3135 3134 3134 3135 3134 3134 3134 3134 3134 3134 3133 3133 3133 3133 3133 3132 3132 3130 3129 3130 3130 3129 3130 3131 3132 3133 3135 3137 3138 3139 3141 3142 3144 3146 3147 3149 3152 3154 3156 3158 3161 3164 3165 3168 3171 3171 3170 3170 3172 3174 3173 3174 3175 3176 3178 3178 3179 3181 3181 3183 3185 3186 3187 3187 3186 3186 3187 3188 3188 3189 3190 3191 3192 3193 3194 3195 3195 3196 3197
3134 3134 3134 3133 3132 3131 3131 3131 3131 3131 3132 3131 3132 3132 3131 3131 3131 3131 3131 3131 3131 3131 3130 3130 3130 3130 3129 3128 3128 3128 3128 3128 3129 3130 3131 3133 3135 3136 3138 3140 3141 3143 3144 3146 3148 3150 3152 3155 3156 3159 3161 3162 3165 3167 3165 3165 3166 3169 3171 3171 3172 3173 3175 3177 3177 3177 3178 3180 3182 3184 3185 3186 3186 3185 3185 3186 3187 3187 3188 3189 3190 3190 3191 3192 3193 3194 3195 3196
3132 3131 3131 3130 3129 3128 3128 3128 3128 3128 3129 3129 3129 3129 3129 3128 3128 3128 3128 3128 3128 3128 3128 3127 3127 3129 3128 3126 3127 3127 3127 3127 3128 3129 3129 3131 3133 3134 3136 3138 3140 3142 3144 3145 3147 3148 3150 3153 3154 3155 3156 3157 3160 3162 3162 3164 3166 3167 3169 3170 3171 3172 3174 3175 3176 3176 3177 3179 3181 3183 3183 3185 3186 3185 3184 3185 3186 3186 3187 3188 3188 3188 3189 3190 3191 3192 3193 3194
3129 3129 3128 3127 3126 3125 3125 3125 3125 3125 3126 3126 3126 3127 3126 3126 3126 3125 3124 3125 3125 3125 3126 3124 3124 3125 3125 3125 3125 3125 3125 3126 3126 3127 3128 3129 3131 3133 3135 3136 3138 3141 3143 3145 3146 3146 3149 3150 3149 3150 3152 3155 3157 3160 3163 3165 3166 3167 3168 3168 3169 3170 3172 3174 3176 3175 3175 3178 3180 3181 3183 3183 3185 3184 3183 3184 3184 3185 3185 3186 3186 3186 3187 3187 3188 3189 3190 3192
3126 3126 3125 3125 3124 3122 3122 3122 3122 3122 3122 3123 3124 3124 3123 3123 3124 3122 3120 3121 3122 3121 3122 3122 3121 3121 3122 3123 3123 3122 3122 3122 3124 3124 3125 3127 3129 3131 3132 3134 3137 3139 3141 3144 3145 3145 3146 3146 3146 3148 3152 3155 3157 3160 3163 3164 3165 3166 3166 3167 3167 3168 3169 3172 3174 3174 3174 3177 3178 3180 3181 3182 3183 3183 3182 3181 3182 3183 3184 3184 3184 3185 3185 3185 3186 3187 3189 3190
3123 3122 3122 3122 3122 3120 3119 3119 3118 3119 3120 3120 3121 3121 3121 3121 3121 3119 3117 3117 3118 3118 3118 3118 3118 3117 3119 3120 3119 3119 3118 3119 3121 3121 3122 3124 3127 3129 3130 3132 3135 3137 3139 3142 3143 3143 3143 3142 3145 3148 3152 3155 3156 3158 3161 3162 3164 3164 3165 3165 3165 3165 3167 3170 3172 3173 3173 3175 3177 3178 3179 3180 3181 3182 3180 3179 3180 3181 3182 3183 3183 3184 3184 3184 3184 3185 3186 3188
3120 3119 3119 3119 3119 3118 3117 3117 3116 3116 3117 3117 3118 3118 3119 3118 3118 3117 3115 3114 3114 3114 3115 3115 3114 3114 3115 3115 3115 3116 3115 3116 3118 3119 3120 3122 3124 3127 3128 3130 3133 3136 3137 3138 3139 3140 3140 3141 3144 3148 3150 3152 3154 3156 3159 3160 3161 3162 3163 3163 3163 3163 3166 3169 3171 3172 3172 3173 3175 3177 3177 3178 3179 3179 3178 3176 3177 3179 3180 3181 3181 3182 3182 3182 3183 3184 3184 3185
3116 3116 3116 3116 3117 3116 3114 3114 3113 3113 3114 3115 3115 3116 3116 3115 3115 3114 3114 3112 3110 3109 3111 3112 3111 3112 3112 3111 3112 3113 3113 3114 3115 3116 3117 3119 3121 3124 3126 3128 3131 3134 3134 3135 3137 3138 3139 3140 3143 3146 3147 3149 3152 3154 3156 3157 3158 3159 3160 3160 3161 3162 3165 3167 3169 3171 3172 3172 3172 3175 3176 3175 3175 3175 3175 3174 3174 3176 3177 3178 3178 3179 3180 3181 3181 3181 3182 3183
3113 3113 3113 3113 3114 3114 3112 3112 3111 3111 3111 3112 3113 3113 3113 3113 3113 3113 3112 3111 3108 3106 3107 3108 3108 3108 3108 3108 3109 3109 3110 3110 3112 3114 3113 3116 3119 3121 3124 3126 3128 3130 3131 3133 3135 3136 3138 3139 3140 3143 3144 3146 3149 3151 3152 3154 3156 3156 3157 3158 3160 3161 3163 3166 3167 3169 3171 3170 3169 3173 3173 3170 3170 3171 3172 3173 3172 3172 3174 3174 3175 3177 3178 3179 3179 3178 3179 3180
3109 3109 3109 3110 3111 3111 3111 3109 3109 3108 3109 3110 3110 3111 3111 3111 3111 3111 3111 3110 3107 3104 3103 3103 3104 3104 3104 3106 3106 3107 3107 3107 3109 3110 3110 3113 3117 3119 3122 3124 3124 3128 3130 3131 3133 3134 3136 3136 3136 3140 3142 3144 3147 3148 3149 3152 3154 3153 3154 3156 3159 3160 3161 3163 3165 3167 3168 3167 3168 3170 3170 3167 3167 3167 3169 3171 3170 3169 3171 3171 3172 3174 3175 3176 3176 3177 3177 3178
3106 3105 3105 3106 3107 3108 3108 3107 3106 3106 3107 3107 3108 3109 3109 3109 3109 3110 3110 3110 3104 3100 3099 3100 3100 3101 3101 3103 3103 3105 3106 3105 3106 3107 3108 3111 3114 3117 3120 3121 3121 3124 3127 3129 3129 3129 3131 3133 3133 3137 3140 3142 3143 3144 3146 3150 3151 3150 3152 3155 3157 3159 3160 3161 3163 3165 3165 3165 3166 3168 3168 3167 3164 3164 3166 3168 3168 3167 3167 3168 3169 3170 3171 3173 3174 3175 3176 3176
3103 3102 3101 3102 3103 3103 3105 3105 3104 3104 3104 3105 3105 3106 3106 3107 3108 3109 3111 3108 3100 3096 3097 3096 3097 3098 3099 3101 3101 3102 3103 3103 3104 3105 3106 3109 3112 3114 3116 3118 3120 3122 3123 3124 3125 3125 3127 3129 3130 3134 3138 3138 3139 3142 3145 3148 3149 3150 3152 3153 3155 3157 3158 3159 3161 3162 3162 3162 3163 3165 3167 3165 3161 3162 3164 3164 3165 3165 3163 3164 3166 3167 3168 3170 3171 3172 3173 3174
3100 3099 3098 3099 3099 3100 3101 3101 3101 3102 3102 3102 3103 3104 3104 3106 3106 3107 3111 3107 3097 3095 3095 3095 3096 3096 3097 3098 3099 3100 3100 3102 3102 3102 3104 3106 3109 3111 3113 3116 3119 3120 3120 3121 3124 3125 3124 3126 3128 3131 3134 3135 3137 3141 3144 3146 3147 3149 3150 3151 3154 3155 3157 3158 3158 3159 3159 3157 3157 3160 3163 3162 3158 3158 3161 3161 3161 3161 3161 3162 3163 3164 3166 3167 3168 3170 3171 3172
3097 3095 3095 3096 3096 3097 3097 3098 3098 3099 3100 3100 3101 3102 3102 3103 3104 3106 3107 3101 3094 3093 3094 3094 3095 3095 3095 3096 3097 3098 3098 3100 3100 3100 3102 3103 3106 3108 3110 3114 3117 3119 3119 3119 3122 3123 3122 3123 3126 3128 3130 3133 3137 3140 3142 3143 3146 3148 3149 3151 3153 3153 3155 3156 3156 3157 3154 3150 3153 3156 3158 3160 3156 3153 3156 3157 3156 3158 3159 3160 3160 3161 3163 3164 3165 3167 3168 3169
3093 3092 3091 3092 3093 3093 3094 3095 3095 3096 3097 3097 3099 3100 3100 3101 3102 3102 3098 3093 3091 3091 3091 3092 3093 3093 3094 3095 3096 3096 3096 3097 3098 3098 3099 3101 3103 3105 3108 3111 3113 3116 3117 3116 3118 3120 3121 3120 3122 3124 3127 3131 3135 3137 3138 3141 3144 3146 3147 3149 3150 3151 3153 3154 3154 3155 3150 3146 3151 3153 3154 3157 3153 3149 3152 3154 3154 3156 3158 3159 3159 3159 3159 3161 3162 3164 3165 3166
3089 3088 3087 3088 3089 3090 3091 3092 3093 3094 3094 3095 3097 3097 3098 3100 3097 3092 3089 3089 3090 3088 3088 3090 3091 3091 3093 3093 3094 3094 3095 3095 3096 3096 3097 3098 3100 3101 3103 3105 3107 3109 3110 3111 3114 3116 3117 3118 3120 3121 3123 3127 3131 3133 3135 3138 3141 3143 3144 3146 3146 3146 3149 3150 3149 3150 3147 3146 3149 3150 3150 3152 3149 3147 3150 3152 3153 3155 3156 3157 3158 3158 3157 3158 3159 3161 3162 3164
3085 3084 3084 3083 3084 3086 3087 3087 3090 3091 3090 3092 3093 3093 3097 3095 3086 3083 3085 3086 3086 3084 3085 3088 3088 3090 3091 3091 3092 3092 3093 3093 3093 3094 3095 3096 3097 3098 3099 3102 3104 3104 3105 3108 3111 3112 3113 3115 3117 3118 3119 3122 3125 3128 3130 3132 3135 3137 3138 3140 3140 3139 3143 3145 3144 3144 3144 3144 3146 3148 3148 3146 3145 3145 3147 3148 3150 3152 3154 3154 3155 3155 3155 3156 3157 3158 3159 3161
3081 3080 3080 3079 3080 3082 3082 3083 3085 3087 3088 3089 3089 3091 3092 3086 3078 3080 3082 3082 3082 3082 3083 3085 3086 3088 3089 3089 3090 3089 3090 3091 3091 3092 3094 3094 3095 3095 3096 3098 3100 3102 3104 3106 3106 3107 3108 3108 3110 3112 3114 3116 3119 3123 3126 3129 3132 3133 3135 3137 3135 3134 3136 3138 3138 3139 3140 3141 3142 3145 3144 3142 3142 3142 3143 3145 3147 3149 3151 3151 3151 3152 3153 3153 3154 3155 3156 3158
3077 3076 3075 3075 3076 3077 3079 3079 3081 3083 3084 3084 3086 3085 3081 3075 3076 3079 3079 3079 3081 3081 3082 3083 3084 3086 3087 3087 3087 3086 3087 3088 3088 3090 3091 3090 3091 3091 3092 3094 3096 3099 3101 3101 3101 3103 3104 3103 3104 3108 3111 3113 3116 3120 3125 3128 3128 3130 3134 3133 3130 3131 3134 3134 3134 3134 3136 3138 3137 3137 3139 3139 3140 3140 3141 3142 3144 3146 3147 3148 3148 3149 3150 3151 3152 3153 3154 3155
3073 3072 3071 3071 3071 3073 3074 3075 3076 3079 3079 3080 3081 3075 3069 3069 3074 3077 3076 3077 3078 3079 3081 3082 3082 3083 3084 3084 3085 3085 3084 3085 3086 3087 3087 3087 3088 3088 3089 3091 3092 3095 3097 3098 3099 3100 3101 3101 3103 3105 3108 3110 3113 3117 3122 3124 3124 3126 3128 3126 3126 3132 3134 3132 3132 3133 3135 3134 3129 3130 3134 3137 3138 3137 3138 3140 3141 3144 3145 3145 3146 3146 3147 3148 3149 3150 3152 3153
3069 3069 3068 3067 3067 3068 3069 3070 3072 3073 3074 3076 3072 3065 3064 3068 3071 3073 3074 3074 3074 3076 3078 3078 3078 3079 3080 3080 3081 3082 3082 3082 3083 3084 3084 3084 3084 3084 3086 3088 3089 3091 3094 3096 3097 3098 3099 3100 3100 3102 3105 3107 3111 3115 3118 3120 3121 3122 3122 3123 3128 3132 3130 3129 3128 3129 3132 3130 3125 3125 3129 3132 3133 3132 3134 3137 3139 3141 3142 3144 3145 3145 3144 3145 3147 3148 3149 3150
3064 3064 3064 3063 3063 3064 3065 3066 3067 3068 3069 3068 3063 3060 3062 3065 3066 3069 3071 3070 3072 3074 3075 3075 3074 3075 3076 3076 3077 3078 3080 3079 3080 3080 3080 3080 3080 3081 3083 3086 3087 3089 3092 3095 3095 3096 3098 3097 3097 3099 3102 3105 3109 3113 3114 3115 3117 3118 3119 3122 3125 3125 3124 3125 3124 3123 3126 3125 3123 3122 3124 3127 3128 3128 3131 3134 3135 3137 3140 3141 3143 3143 3142 3143 3144 3145 3147 3148
3058 3059 3059 3059 3059 3059 3060 3061 3061 3063 3063 3060 3056 3056 3058 3060 3062 3064 3066 3067 3069 3071 3071 3071 3072 3072 3072 3073 3074 3075 3076 3076 3077 3077 3077 3077 3078 3078 3080 3083 3084 3086 3089 3092 3093 3094 3096 3096 3093 3095 3100 3102 3105 3107 3106 3108 3112 3116 3118 3119 3119 3119 3120 3121 3122 3121 3121 3120 3120 3120 3119 3120 3123 3126 3129 3131 3132 3135 3137 3138 3140 3141 3141 3141 3142 3143 3144 3145
3053 3054 3054 3053 3054 3054 3055 3056 3056 3056 3055 3052 3052 3054 3055 3057 3058 3059 3061 3063 3065 3066 3067 3068 3069 3069 3069 3070 3071 3072 3073 3073 3074 3075 3075 3075 3076 3075 3078 3081 3082 3084 3087 3089 3091 3092 3094 3094 3092 3092 3097 3098 3097 3097 3099 3102 3106 3110 3113 3114 3114 3116 3118 3118 3118 3119 3118 3116 3117 3117 3113 3113 3119 3124 3126 3128 3131 3133 3135 3136 3138 3139 3140 3140 3140 3140 3141 3143
3050 3050 3049 3049 3050 3050 3051 3051 3050 3050 3049 3047 3049 3051 3052 3053 3054 3055 3057 3059 3060 3062 3063 3064 3065 3066 3066 3067 3068 3069 3070 3071 3072 3072 3072 3073 3073 3073 3075 3077 3080 3082 3084 3086 3088 3089 3091 3092 3091 3091 3092 3093 3092 3093 3097 3100 3102 3104 3107 3109 3110 3112 3114 3114 3111 3113 3115 3113 3112 3113 3110 3111 3116 3120 3122 3125 3128 3130 3133 3134 3135 3136 3138 3138 3137 3138 3139 3140
3045 3046 3045 3045 3045 3046 3046 3045 3045 3046 3044 3043 3045 3047 3048 3048 3048 3050 3053 3054 3056 3057 3058 3059 3059 3061 3062 3063 3065 3066 3067 3068 3069 3069 3070 3070 3071 3072 3073 3074 3077 3079 3081 3082 3084 3086 3088 3089 3090 3089 3089 3090 3091 3093 3095 3097 3100 3102 3103 3105 3108 3108 3109 3108 3106 3108 3111 3110 3110 3111 3108 3109 3114 3117 3119 3122 3125 3128 3130 3132 3133 3134 3135 3135 3135 3135 3136 3138
3040 3041 3042 3041 3040 3042 3042 3040 3041 3042 3040 3039 3041 3042 3042 3042 3043 3045 3048 3050 3051 3052 3053 3053 3054 3056 3058 3059 3061 3063 3064 3064 3065 3066 3067 3067 3068 3070 3071 3072 3074 3076 3078 3079 3081 3084 3085 3086 3087 3087 3087 3088 3090 3092 3093 3095 3098 3098 3098 3100 3102 3102 3103 3103 3104 3108 3107 3105 3108 3108 3103 3105 3113 3116 3117 3119 3122 3124 3127 3129 3130 3131 3132 3132 3132 3133 3134 3135
3036 3036 3038 3037 3036 3037 3037 3037 3038 3038 3037 3037 3037 3037 3037 3037 3038 3040 3043 3045 3047 3048 3048 3049 3050 3052 3053 3056 3057 3058 3060 3061 3061 3062 3064 3065 3065 3067 3068 3070 3071 3073 3075 3077 3078 3080 3080 3081 3083 3083 3084 3086 3086 3086 3088 3090 3092 3091 3092 3094 3096 3098 3101 3101 3103 3106 3101 3099 3104 3102 3097 3103 3111 3113 3114 3117 3119 3120 3123 3125 3127 3127 3128 3129 3129 3130 3131 3132
3032 3032 3033 3033 3032 3032 3032 3033 3035 3034 3034 3035 3034 3033 3033 3033 3033 3035 3038 3040 3043 3044 3045 3045 3047 3048 3050 3052 3053 3054 3056 3057 3058 3060 3061 3062 3063 3064 3066 3067 3068 3070 3072 3073 3074 3075 3076 3077 3079 3078 3077 3078 3077 3077 3079 3083 3086 3087 3088 3090 3091 3094 3096 3097 3099 3098 3094 3096 3100 3096 3095 3102 3109 3110 3111 3114 3116 3118 3120 3122 3124 3125 3125 3126 3126 3127 3128 3130
3029 3028 3029 3030 3029 3028 3028 3029 3030 3030 3031 3031 3029 3029 3030 3030 3030 3031 3033 3035 3037 3040 3041 3042 3044 3045 3046 3048 3049 3050 3052 3054 3055 3057 3058 3059 3061 3062 3063 3064 3065 3067 3068 3069 3070 3072 3073 3074 3074 3074 3072 3072 3073 3075 3078 3081 3082 3083 3085 3086 3088 3090 3092 3094 3094 3091 3090 3095 3096 3093 3096 3101 3104 3106 3108 3111 3113 3115 3117 3119 3121 3122 3122 3123 3124 3124 3125 3126
3025 3025 3026 3027 3026 3025 3026 3027 3028 3027 3027 3027 3026 3026 3027 3027 3028 3029 3029 3030 3033 3035 3037 3038 3040 3041 3041 3043 3045 3046 3048 3050 3052 3053 3055 3057 3059 3060 3060 3060 3062 3064 3065 3066 3067 3069 3070 3070 3070 3071 3071 3071 3073 3075 3077 3079 3079 3080 3082 3083 3085 3087 3089 3089 3087 3086 3091 3092 3089 3091 3097 3099 3099 3103 3106 3107 3110 3112 3114 3116 3118 3119 3119 3119 3121 3121 3122 3122
3021 3021 3022 3023 3022 3022 3023 3023 3023 3023 3023 3023 3022 3022 3023 3024 3025 3026 3027 3027 3029 3031 3033 3034 3035 3036 3038 3040 3042 3042 3044 3046 3048 3049 3052 3054 3056 3057 3058 3058 3060 3062 3063 3065 3065 3066 3067 3066 3067 3069 3069 3070 3072 3073 3074 3076 3077 3078 3079 3080 3082 3084 3084 3085 3084 3086 3089 3087 3085 3090 3095 3094 3096 3101 3102 3104 3107 3108 3110 3113 3115 3116 3116 3116 3116 3117 3118 3119
3018 3018 3018 3018 3017 3017 3018 3018 3018 3018 3018 3019 3019 3019 3020 3021 3022 3024 3024 3025 3026 3028 3029 3029 3031 3033 3035 3037 3038 3039 3040 3042 3043 3045 3048 3050 3052 3054 3055 3056 3058 3059 3061 3062 3063 3063 3063 3064 3065 3066 3066 3066 3068 3069 3071 3072 3073 3074 3075 3076 3078 3079 3080 3081 3082 3084 3085 3083 3084 3089 3091 3089 3093 3096 3098 3101 3104 3106 3107 3109 3111 3114 3114 3113 3113 3114 3115 3116
3014 3014 3014 3013 3012 3013 3014 3015 3015 3015 3015 3016 3016 3016 3017 3018 3020 3020 3021 3021 3022 3024 3026 3028 3029 3030 3031 3033 3034 3035 3037 3039 3041 3043 3045 3047 3049 3050 3052 3053 3055 3057 3058 3059 3060 3060 3060 3061 3062 3063 3062 3062 3063 3065 3067 3068 3068 3069 3070 3072 3073 3074 3075 3076 3078 3080 3081 3080 3083 3086 3085 3085 3088 3092 3094 3097 3100 3102 3104 3105 3107 3110 3111 3110 3109 3110 3111 3113
3010 3009 3009 3009 3009 3010 3011 3012 3013 3013 3012 3013 3014 3014 3015 3015 3016 3015 3015 3017 3019 3021 3023 3024 3025 3025 3026 3028 3030 3033 3035 3036 3037 3039 3040 3042 3045 3047 3048 3050 3052 3053 3055 3056 3057 3057 3058 3058 3059 3060 3059 3057 3059 3061 3062 3064 3065 3065 3065 3067 3069 3070 3070 3071 3072 3074 3075 3076 3079 3080 3078 3079 3084 3088 3090 3092 3095 3097 3099 3101 3103 3105 3106 3107 3106 3107 3108 3109
3006 3006 3006 3006 3005 3006 3008 3009 3010 3010 3010 3010 3011 3010 3010 3011 3011 3011 3013 3015 3016 3017 3017 3017 3018 3020 3022 3025 3027 3028 3029 3029 3030 3033 3035 3037 3039 3042 3043 3045 3047 3049 3051 3053 3054 3055 3055 3055 3056 3057 3055 3054 3055 3057 3058 3061 3060 3058 3059 3062 3064 3065 3066 3067 3067 3069 3070 3072 3073 3073 3072 3076 3081 3084 3085 3086 3089 3091 3093 3096 3098 3100 3101 3102 3103 3104 3105 3106